Probability
0 0 0 0 0 0 0 0 0 0 0 0 0 0 0 0 0 0 0 0 0 0 0 0 0 0 0 0 0 0 0 0 0 0 0 0 0 0 0 0 0 0 0 0
0 0 0 0 0 0 0 0 0 0 0 0 0 0 0 0 0 0 0 0 0 0 0 0 0 0 0 0 0 0 0 0 0 0 0 0 0 0 0 0 0 0 0 0
0 0 0 0 0 0 0 0 0 0 0 0 0 0 0 0 0 0 0 0 0 0 0 0 0 0 0 0 0 0 0 0 0 0 0 0 0 0 0 0 0 0 0 0
0 0 0 0 0 0 0 0 0 0 0 0 0 0 0 0 0 0 0 0 0 0 0 0 0 0 0 0 0 0 0 0 0 0 0 0 0 0 0 0 0 0 0 0
0 0 0 0 0 0 0 0 0 0 0 0 0 0 0 0 0 0 0 0 0 0 0 0 0 0 0 0 0 0 0 0 0 0 0 0 0 0 0 0 0 0 0 0
0 0 0 0 0 0 0 0 0 0 0 0 0 0 0 0 0 0 0 0 0 0 0 0 0 0 0 0 0 0 0 0 0 0 0 0 0 0 0 0 0 0 0 0
0 0 0 0 0 0 0 0 0 0 0 0 0 0 0 0 0 0 0 0 0 0 0 0 0 0 0 0 0 0 0 0 0 0 0 0 0 0 0 0 0 0 0 0
0 0 0 0 0 0 0 0 0 0 0 0 0 0 0 0 0 0 0 0 0 0 0 0 0 0 0 0 0 0 0 0 0 0 0 0 0 0 0 0 0 0 0 0
0 0 0 0 0 0 0 0 0 0 0 0 0 0 0 0 0 0 0 0 0 0 0 0 0 0 0 0 0 0 0 0 0 0 0 0 0 0 0 0 0 0 0 0
0 0 0 0 0 0 0 0 0 0 0 0 0 0 0 0 0 0 0 0 0 0 0 0 0 0 0 0 0 0 0 0 0 0 0 0 0 0 0 0 0 0 0 0
0 0 0 0 0 0 0 0 0 0 0 0 0 0 0 0 0 0 0 0 0 0 0 0 0 0 0 0 0 0 0 0 0 0 0 0 0 0 0 0 0 0 0 0
0 0 0 0 0 0 0 0 0 0 0 0 0 0 0 0 0 0 0 0 0 0 0 0 0 0 0 0 0 0 0 0 0 0 0 0 0 0 0 0 0 0 0 0
0 0 0 0 0 0 0 0 0 0 0 0 0 0 0 0 0 0 0 0 0 0 0 0 0 0 0 0 0 0 0 0 0 0 0 0 0 0 0 0 0 0 0 0
0 0 0 0 0 0 0 0 0 0 0 0 0 0 0 0 0 0 0 0 0 0 0 0 0 0 0 0 0 0 0 0 0 0 0 0 0 0 0 0 0 0 0 0
0 0 0 0 0 0 0 0 0 0 0 0 0 0 0 0 0 0 0 0 0 0 0 0 0 0 0 0 0 0 0 0 0 0 0 0 0 0 0 0 0 0 0 0
0 0 0 0 0 0 0 0 0 0 0 0 0 0 0 0 0 0 0 0 0 0 0 0 0 0 0 0 0 0 0 0 0 0 0 0 0 0 0 0 0 0 0 0
0 0 0 0 0 0 0 0 0 0 0 0 0 0 0 0 0 0 0 0 0 0 0 0 0 0 0 0 0 0 0 0 0 0 0 0 0 0 0 0 0 0 0 0
0 0 0 0 0 0 0 0 0 0 0 0 0 0 0 0 0 0 0 0 0 0 0 0 0 0 0 0 0 0 0 0 0 0 0 0 0 0 0 0 0 0 0 0
0 0 0 0 0 0 0 0 0 0 0 0 0 0 0 0 0 0 0 0 0 0 0 0 0 0 0 0 0 0 0 0 0 0 0 0 0 0 0 0 0 0 0 0
0 0 0 0 0 0 0 0 0 0 0 0 0 0 0 0 0 0 0 0 0 0 0 0 0 0 0 0 0 0 0 0 0 0 0 0 0 0 0 0 0 0 0 0
0 0 0 0 0 0 0 0 0 0 0 0 0 0 0 0 0 0 0 0 0 0 0 0 0 0 0 0 0 0 0 0 0 0 0 0 0 0 0 0 0 0 0 0
0 0 0 0 0 0 0 0 0 0 0 0 0 0 0 0 0 0 0 0 0 0 0 0 0 0 0 0 0 0 0 0 0 0 0 0 0 0 0 0 0 0 0 0
0 0 0 0 0 0 0 0 0 0 0 0 0 0 0 0 0 0 0 0 0 0 0 0 0 0 0 0 0 0 0 0 0 0 0 0 0 0 0 0 0 0 0 0
0 0 0 0 0 0 0 0 0 0 0 0 0 0 0 0 0 0 0 0 0 0 0 0 0 0 0 0 0 0 0 0 0 0 0 0 0 0 0 0 0 0 0 0
0 0 0 0 0 0 0 0 0 0 0 0 0 0 0 0 0 0 0 0 0 0 0 0 0 0 0 0 0 0 0 0 0 0 0 0 0 0 0 0 0 0 0 0
0 0 0 0 0 0 0 0 0 0 0 0 0 0 0 0 0 0 0 0 0 0 0 0 0 0 0 0 0 0 0 0 0 0 0 0 0 0 0 0 0 0 0 0
0 0 0 0 0 0 0 0 0 0 0 0 0 0 0 0 0 0 0 0 0 0 0 0 0 0 0 0 0 0 0 0 0 0 0 0 0 0 0 0 0 0 0 0
Wind_Speed
7 6 5 7 9 10 12 12 11 11 11 12 9 7 7 6 5 6 6 5 5 4 4 3 3 3 2 3 2 2 3 3 3 3 3 2 2 3 3 3 3 3 3 3
6 5 6 9 11 11 13 13 14 14 15 10 7 6 6 6 6 6 6 6 6 5 4 3 3 3 3 3 3 2 3 3 3 2 2 2 2 3 3 3 3 3 3 4
5 3 5 10 10 11 9 9 10 13 11 5 6 6 6 6 6 6 6 6 5 5 4 4 3 3 4 4 3 3 3 3 3 3 3 3 3 3 3 3 3 3 4 4
3 2 9 4 0 6 8 9 9 10 8 7 7 7 7 7 6 6 6 5 5 5 4 4 3 3 4 3 3 3 3 3 3 3 3 3 3 4 4 3 3 4 4 4
4 6 9 5 3 4 6 8 7 8 8 7 5 6 5 3 4 5 6 6 5 5 5 4 4 3 3 3 3 3 4 4 4 4 4 3 4 4 3 3 3 4 4 4
4 6 7 3 1 1 3 6 2 4 6 5 4 5 4 2 4 5 5 5 5 5 4 4 3 3 3 3 3 4 4 4 4 4 4 4 4 4 3 3 3 3 3 4
7 7 8 2 2 3 4 3 2 4 5 5 6 6 5 5 5 5 5 5 5 4 4 3 3 3 4 4 4 4 3 3 3 4 4 4 4 3 3 3 3 3 3 3
6 8 8 3 4 6 4 4 4 5 5 6 7 6 6 6 5 5 5 5 4 4 4 3 3 3 4 4 4 3 3 3 3 3 3 3 3 3 3 3 3 3 3 3
7 6 3 4 5 5 4 6 5 5 5 6 6 6 6 6 5 5 5 4 4 4 4 4 3 3 4 4 3 3 3 3 3 3 3 3 3 3 3 3 3 3 3 3
6 8 7 7 7 7 6 7 7 6 6 5 6 6 6 5 5 5 5 4 3 3 4 4 3 3 4 3 3 3 3 3 3 3 3 3 3 3 3 3 3 3 3 3
8 8 8 7 7 7 7 7 6 5 5 5 5 6 6 5 6 5 5 4 4 4 4 5 4 4 3 3 3 3 3 3 2 3 3 3 3 3 4 4 4 4 4 4
7 6 6 7 6 6 6 6 6 5 5 5 5 6 6 5 5 5 5 4 4 4 4 5 4 4 4 3 3 3 3 3 2 2 2 2 3 2 3 5 6 7 7 6
8 6 7 8 6 5 5 6 6 5 5 5 5 5 5 5 5 4 4 4 4 4 4 4 4 4 4 3 3 4 4 3 2 2 3 2 3 3 3 3 4 6 6 7
7 6 7 6 6 5 5 5 4 4 4 4 4 4 4 4 4 4 4 4 4 4 4 4 4 5 4 3 3 4 4 4 3 3 3 3 3 3 3 3 3 3 4 6
7 7 7 6 5 4 3 3 3 4 3 4 3 3 3 4 4 5 4 3 3 4 4 4 4 5 3 3 3 4 3 3 3 3 3 3 3 3 3 3 3 3 3 3
6 6 6 6 6 5 4 4 4 4 4 4 4 4 4 4 4 4 3 3 3 4 4 4 5 4 3 3 3 3 3 4 4 3 3 3 3 3 3 3 3 3 3 3
5 5 5 5 6 5 5 5 5 4 4 4 5 4 3 3 3 3 3 3 3 4 5 5 5 4 3 3 3 3 2 3 3 3 3 3 3 3 3 3 3 3 3 3
7 7 6 6 5 5 5 4 4 4 4 4 4 3 3 3 4 4 4 4 4 4 4 4 4 3 3 3 3 3 2 2 2 3 3 3 3 3 3 3 3 4 3 3
4 4 4 4 3 3 4 4 4 3 3 3 3 3 4 4 4 4 4 4 4 4 4 3 4 3 3 3 3 2 2 3 2 2 2 3 3 3 3 3 3 3 3 2
2 2 2 2 2 2 3 3 3 3 3 2 3 3 3 4 3 4 4 4 4 4 4 4 3 3 3 3 3 2 2 3 3 3 2 2 2 3 3 3 3 3 3 3
2 2 2 2 2 2 2 3 2 3 3 2 3 3 4 4 3 3 3 4 3 3 4 4 3 3 3 2 3 2 2 2 3 3 3 2 2 3 3 3 3 3 3 2
2 2 2 2 2 2 2 2 2 3 3 3 3 3 3 4 3 3 3 4 4 5 3 3 3 4 4 3 2 2 2 2 2 2 2 3 3 3 3 3 3 2 2 2
2 2 2 2 2 3 3 2 2 3 3 3 3 3 4 4 3 3 3 2 3 5 4 3 4 5 5 2 2 2 2 3 3 3 3 3 3 3 3 3 3 2 2 2
2 2 2 2 2 2 3 3 3 3 3 3 3 3 3 3 3 3 3 4 5 5 3 4 6 6 4 2 2 2 2 3 3 3 3 2 2 3 3 3 3 2 2 3
2 2 1 1 2 2 2 2 2 2 2 2 3 3 3 3 3 3 3 3 5 5 3 4 5 5 3 2 2 2 2 2 2 2 2 2 2 3 3 3 3 3 3 3
1 2 2 2 2 2 2 2 2 2 2 2 2 2 2 2 2 2 2 2 3 4 3 3 3 3 2 2 2 2 2 2 2 2 2 2 3 3 3 3 3 3 3 3
1 1 1 2 2 2 2 2 2 2 2 2 2 2 2 2 2 2 2 2 2 2 2 2 2 2 2 2 2 2 2 2 2 2 2 2 2 2 3 3 3 2 2 2
Wind_Direction
268 277 261 253 239 221 223 236 249 262 263 271 281 287 290 290 290 289 286 283 281 279 278 279 278 272 273 267 256 244 232 226 231 235 236 235 235 236 232 228 228 229 231 232
263 260 263 265 254 236 236 242 249 264 271 273 282 283 283 282 280 281 284 284 284 282 279 279 282 279 277 269 259 244 236 232 230 230 230 233 234 239 234 235 236 234 233 234
257 269 276 259 237 220 227 230 234 248 263 284 284 287 290 290 280 276 284 286 283 277 273 273 275 275 271 269 257 239 241 237 229 226 230 231 228 229 231 236 237 238 239 238
265 251 246 264 292 219 231 246 240 257 274 279 281 294 288 279 275 277 283 288 286 284 281 281 279 278 271 263 246 236 239 238 234 229 231 232 227 229 234 237 236 241 244 244
232 254 271 270 220 198 224 262 237 244 269 284 294 290 276 275 272 282 291 292 289 288 283 277 271 272 265 263 257 244 242 242 240 235 236 237 235 236 237 238 240 241 246 246
223 249 260 282 149 199 219 265 203 239 273 286 283 275 291 320 305 296 297 295 292 290 280 270 271 266 257 261 260 259 256 249 244 237 235 237 238 240 240 235 240 245 247 249
232 250 268 287 134 170 232 291 330 264 263 261 257 273 296 298 297 292 294 293 290 282 271 271 271 254 252 258 262 271 275 261 248 240 237 239 240 237 235 235 240 247 252 251
208 230 253 155 168 215 279 320 290 276 268 263 270 281 283 285 287 291 294 294 289 282 278 279 264 246 252 259 271 278 274 262 246 241 237 233 233 232 229 227 234 242 249 257
215 237 304 210 242 272 293 286 288 283 281 270 270 274 279 281 283 285 284 284 280 275 281 283 264 248 253 268 277 271 264 260 252 243 234 227 227 227 227 225 228 239 246 255
255 264 267 265 268 272 272 277 283 282 278 264 261 269 276 280 281 280 279 278 272 269 275 283 278 266 262 272 274 261 258 259 254 243 241 236 231 226 226 226 228 233 243 251
259 275 286 267 261 274 279 279 280 281 274 263 259 266 272 277 279 281 280 276 266 262 268 276 281 276 274 268 261 257 257 253 252 246 239 240 238 235 234 235 236 239 242 245
252 261 262 278 286 286 276 274 274 275 277 271 261 264 272 275 276 277 273 270 266 264 265 271 273 273 275 269 254 248 253 248 243 243 241 241 243 253 250 253 259 258 259 258
266 280 276 282 284 283 275 278 279 272 270 277 277 269 267 271 274 275 270 264 262 263 265 270 273 273 271 267 252 242 247 250 244 239 239 239 241 246 263 261 255 257 259 260
263 274 272 272 275 282 281 285 287 285 282 278 281 279 271 273 278 276 273 271 268 266 267 268 269 271 275 265 250 244 244 245 243 239 239 239 241 244 249 258 265 267 254 257
262 261 261 272 278 283 281 279 281 287 292 291 286 280 277 277 280 283 286 284 274 267 270 271 270 276 284 263 248 246 246 246 242 243 241 242 242 242 244 249 256 266 272 263
279 272 258 255 257 264 267 265 265 273 281 287 290 289 287 283 285 290 294 290 283 284 284 279 275 280 280 264 255 248 244 253 257 247 241 240 240 242 245 248 253 258 263 271
259 264 258 255 255 260 261 259 259 265 273 277 281 289 294 297 296 296 301 299 285 280 280 276 275 279 269 257 254 255 255 252 254 249 243 242 241 243 245 248 252 258 263 266
249 255 254 250 250 255 264 265 261 264 267 272 279 280 281 285 289 297 305 307 299 292 289 285 280 280 271 260 253 254 251 250 247 244 243 245 247 247 248 250 253 259 267 263
265 258 258 252 249 249 257 261 264 268 272 265 261 266 271 276 283 292 299 299 298 300 304 303 297 287 277 265 260 247 245 246 249 250 245 248 250 249 250 252 256 261 264 263
279 277 272 274 264 250 253 262 264 266 263 255 258 269 277 282 285 287 289 283 283 290 299 300 293 283 273 263 260 247 243 246 248 249 247 243 247 250 251 255 258 260 259 258
283 277 269 267 279 279 269 264 254 258 263 250 248 261 274 284 283 279 282 290 302 303 300 298 292 287 276 268 256 244 241 243 247 251 250 249 249 251 252 255 257 257 259 264
280 270 267 268 271 282 283 269 255 256 263 262 263 265 273 281 284 275 261 271 297 309 307 297 291 291 293 275 244 241 239 243 249 252 252 250 249 252 255 256 256 261 264 266
271 268 265 267 270 281 289 278 261 256 257 261 261 262 266 275 278 276 286 289 295 305 305 295 297 300 301 279 253 246 243 244 249 252 252 253 252 253 256 258 259 261 264 266
266 269 275 282 276 270 279 285 282 274 269 271 267 260 261 273 275 262 271 297 306 306 302 302 304 303 302 283 263 254 249 249 250 254 255 254 255 255 257 259 261 262 261 263
263 265 267 263 258 266 278 288 289 283 282 284 287 278 261 258 268 285 292 296 307 311 307 313 319 317 305 280 269 263 258 254 256 262 258 256 258 260 261 261 259 259 259 259
263 263 264 267 270 276 280 276 271 276 281 289 296 293 289 283 279 284 290 298 302 309 310 307 308 308 296 287 280 273 266 265 265 259 256 256 257 258 260 263 267 264 262 261
283 285 286 288 283 276 277 276 275 278 276 277 286 293 300 301 298 299 300 303 309 311 310 311 311 304 300 293 286 280 273 267 263 261 262 259 259 259 261 263 265 266 266 264